Tracking 25405 objects as of 26-Jan-2022
HD Live streaming from Space Station
objects crossing your sky now

STARLINK-1945

Track STARLINK-1945 now!
10-day predictions
STARLINK-1945 is classified as:


NORAD ID: 46775
Int'l Code: 2020-074AN
Perigee: 274.4 km
Apogee: 280.2 km
Inclination: 53.0 °
Period: 89.9 minutes
Semi major axis: 6648 km
RCS: Unknown
Launch date: October 24, 2020
Source: United States (US)
Launch site: AIR FORCE EASTERN TEST RANGE (AFETR)
aabbcc
Your satellite tracking list
Your tracking list is empty




NASA's NSSDC Master Catalog

Two Line Element Set (TLE):
1 46775U 20074AN  22026.18145858  .01837856  22021-2  33058-2 0  9992
2 46775  53.0479 204.1332 0004421 321.3641  38.7024 16.01540399 70116
Source of the keplerian elements: AFSPC